TimeCST,TemperatureF,Dew PointF,Humidity,Sea Level PressureIn,VisibilityMPH,Wind Direction,Wind SpeedMPH,Gust SpeedMPH,PrecipitationIn,Events,Conditions,WindDirDegrees,DateUTC
12:58 AM,49.3,34.7,57,30.20,10.0,North,15.0,-,N/A,,Clear,10,2013-11-08 06:58:00
1:58 AM,47.8,34.0,59,30.20,10.0,North,13.8,-,N/A,,Clear,10,2013-11-08 07:58:00
2:58 AM,46.8,33.1,59,30.20,10.0,NNE,13.8,-,N/A,,Clear,20,2013-11-08 08:58:00
3:58 AM,45.3,32.9,62,30.21,10.0,North,11.5,-,N/A,,Clear,10,2013-11-08 09:58:00
4:58 AM,44.6,32.4,62,30.23,10.0,NNE,13.8,-,N/A,,Clear,20,2013-11-08 10:58:00
5:58 AM,44.6,31.8,61,30.25,10.0,NNE,12.7,-,N/A,,Clear,20,2013-11-08 11:58:00
6:58 AM,46.0,31.1,56,30.26,10.0,NNE,13.8,-,N/A,,Clear,20,2013-11-08 12:58:00
7:58 AM,50.4,29.7,45,30.27,10.0,NNE,13.8,24.2,N/A,,Clear,30,2013-11-08 13:58:00
8:58 AM,54.1,30.6,41,30.28,10.0,NNE,16.1,20.7,N/A,,Clear,30,2013-11-08 14:58:00
9:58 AM,58.5,30.9,35,30.27,10.0,NE,15.0,19.6,N/A,,Clear,50,2013-11-08 15:58:00
10:04 AM,59.0,30.2,34,30.26,10.0,ENE,12.7,-,N/A,,Clear,70,2013-11-08 16:04:00
10:40 AM,60.8,32.0,34,30.24,10.0,NNE,12.7,19.6,N/A,,Clear,20,2013-11-08 16:40:00
10:58 AM,60.8,32.0,34,30.25,10.0,ENE,8.1,-,N/A,,Clear,60,2013-11-08 16:58:00
11:58 AM,63.5,33.8,33,30.22,10.0,NE,11.5,-,N/A,,Clear,40,2013-11-08 17:58:00
12:58 PM,65.1,33.4,31,30.19,10.0,NE,12.7,-,N/A,,Clear,40,2013-11-08 18:58:00
1:58 PM,66.0,32.2,28,30.17,10.0,NNE,11.5,-,N/A,,Clear,30,2013-11-08 19:58:00
2:58 PM,64.8,32.9,30,30.17,10.0,NE,12.7,21.9,N/A,,Clear,40,2013-11-08 20:58:00
3:22 PM,64.4,32.0,30,30.16,10.0,NNE,9.2,-,N/A,Rain,Light Rain,30,2013-11-08 21:22:00
3:31 PM,62.6,33.8,34,30.16,10.0,NNE,10.4,-,N/A,,Clear,30,2013-11-08 21:31:00
3:58 PM,62.4,34.3,35,30.18,10.0,NNE,10.4,-,0.00,,Clear,30,2013-11-08 21:58:00
4:58 PM,58.5,36.5,44,30.18,10.0,NNE,6.9,-,N/A,,Clear,30,2013-11-08 22:58:00
5:58 PM,52.3,39.6,62,30.20,10.0,North,4.6,-,N/A,,Clear,360,2013-11-08 23:58:00
6:58 PM,47.7,40.8,77,30.21,10.0,North,5.8,-,N/A,,Clear,10,2013-11-09 00:58:00
7:58 PM,47.1,39.0,73,30.22,10.0,North,6.9,-,N/A,,Clear,10,2013-11-09 01:58:00
8:58 PM,46.2,38.7,75,30.23,10.0,NNE,4.6,-,N/A,,Clear,20,2013-11-09 02:58:00
9:58 PM,50.2,37.2,61,30.23,10.0,ENE,5.8,-,N/A,,Clear,60,2013-11-09 03:58:00
10:58 PM,48.6,37.4,65,30.22,10.0,NE,6.9,-,N/A,,Clear,40,2013-11-09 04:58:00
11:58 PM,48.0,36.9,65,30.21,10.0,ENE,6.9,-,N/A,,Clear,60,2013-11-09 05:58:00